STARLINK-22

decayed
NORAD ID: 44236 Int'l Des: 2019-029 Owner: SPXS Country: US Constellation: starlink
LEOCIRCULAR
グループ

STARLINK-22について

説明を読み込み中...

高度履歴

Altitude vs Time

uPlot chart will show altitude changes over time

軌道要素

1 44236U 19029B 20222.55316459 +.30875389 +12472-4 +17311-2 0 9994
2 44236 052.9807 260.6619 0004178 316.6235 043.5158 16.42066597069218
Epoch: Aug 9, 2020 • Age: 44718 hours

現在のステータス

Position data unavailable
打ち上げ日 May 24, 2019
運用期間 6.3 years
落下予定日 Aug 9, 2020
タイプ internet

技術仕様

分類 Payload
質量 227.00 kg
乾燥質量 219.00 kg
総質量 227.00 kg
長さ 0.20 m
直径 2.80 m
スパン 9.00 m
形状 Box + pan
製造者 SPXS
バスタイプ Starlink
フェーズステータス Unknown Transfer Status
所有者/国 SPXS/US

大規模コンステレーション

Loading constellations...